Location: Newark
(52.8662°N, 8.1982°W)
Time: 21:13:26
(UTC+00:00)

UNISAT 6 - Visible Passes

Search period start: 27 January 2020 00:00
Search period end: 06 February 2020 00:00
Orbit: 606 x 690 km, 97.7° (Epoch: 27 January)

Date Brightness Start Highest point End Pass type
(mag) Time Alt. Az. Time Alt. Az. Time Alt. Az.
27 Jan ? 06:33:56 10° E 06:36:50 18° ENE 06:39:42 10° NNE visible
28 Jan ? 06:58:52 10° ESE 07:02:32 27° ENE 07:06:10 10° N visible
29 Jan ? 07:24:12 10° SE 07:28:19 44° ENE 07:32:24 10° N visible
30 Jan ? 06:16:14 10° E 06:18:11 13° NE 06:20:07 10° NNE visible
31 Jan ? 06:40:42 10° ESE 06:43:49 20° ENE 06:46:56 10° NNE visible
01 Feb ? 07:05:45 10° SE 07:09:32 31° ENE 07:13:19 10° N visible
02 Feb ? 07:31:11 10° SE 07:35:21 51° ENE 07:39:30 10° N visible
03 Feb ? 06:22:48 10° E 06:25:08 15° NE 06:27:29 10° NNE visible
04 Feb ? 06:47:28 10° ESE 06:50:48 22° ENE 06:54:07 10° N visible
05 Feb ? 07:12:39 10° SE 07:16:32 35° ENE 07:20:27 10° N visible
